Home > Weather > Kapurthala > Past weeks

Flag for India Weather for the Past 2 Weeks in Kapurthala, Punjab, India

Now
63 °F

Scattered clouds.


Feels Like: 63 °F
Forecast: 46 / 74 °F
Wind: 1 mph from North

Location: Amritsar Airport

Current Time: Feb 12, 2016 at 6:16:03 PM

Latest Report: Feb 12, 2016 at 5:30 PM


Visibility: 2 mi

Pressure: 29.92 "Hg

Humidity: 68%

Dew point: 52 °F

Location of KapurthalaLocation

Historic Weather in Kapurthala — Graph

°F

Kapurthala Temperature Yesterday

Maximum temperature yesterday: 61 °F (at 12:00 AM)
Minimum temperature yesterday: 50 °F (at 11:00 PM)
Average temperature yesterday: 58 °F

High & Low Weather Summary for the Past Weeks

 TemperatureHumidityPressure
High72 °F (Feb 4, 1:30 PM)100% (Jan 28, 6:00 PM)30.15 "Hg (Jan 28, 6:00 PM)
Low41 °F (Feb 1, 6:00 AM)0% (Feb 10, 9:30 PM)29.65 "Hg (Feb 11, 6:30 AM)
Average58 °F85%29.99 "Hg
* Reported Jan 28 4:30 PM — Feb 12 5:00 PM, Kapurthala, Weather by CustomWeather, © 2016

Note: Actual official high and low records may vary slightly from our data, if they occured in-between our weather recording intervals... More about our weather records

Advertising

Kapurthala Weather History for the Previous 24 Hours

 ConditionsComfort  
Time TempWeatherWind HumidityBarometerVisibility
5:00 PM
Fri, Feb 12
64 °FScattered clouds.7 mph60%29.92 "Hg3 mi
4:30 PM66 °FScattered clouds.7 mph52%29.92 "Hg3 mi
4:00 PM66 °FScattered clouds.7 mph52%29.92 "Hg3 mi
3:30 PM66 °FScattered clouds.7 mph52%29.92 "Hg3 mi
3:00 PM68 °FScattered clouds.6 mph56%29.92 "Hg3 mi
2:30 PM66 °FScattered clouds.6 mph56%29.92 "Hg3 mi
2:00 PM66 °FScattered clouds.3 mph56%29.95 "Hg3 mi
1:30 PM66 °FScattered clouds.2 mph56%29.95 "Hg3 mi
1:00 PM64 °FScattered clouds.2 mph60%29.98 "Hg3 mi
12:30 PM64 °FScattered clouds.2 mph64%29.98 "Hg2 mi
11:30 AM61 °FFog.6 mph88%30.01 "Hg2 mi
11:00 AM59 °FFog.7 mph94%30.01 "Hg2 mi
10:00 AM55 °FFog.5 mph100%30.01 "Hg2 mi
9:30 AM52 °FFog.6 mph100%30.01 "Hg2 mi
9:00 AM50 °FFog.10 mph100%30.01 "Hg2 mi
8:30 AM46 °FFog.2 mph100%30.01 "Hg2 mi
7:30 AM45 °FFog.7 mph100%30.01 "Hg2 mi
7:00 AM43 °FFog.6 mph100%29.98 "Hg1 mi
6:30 AM43 °FFog.1 mph100%29.98 "Hg1 mi
6:00 AM43 °FFog.2 mph100%29.98 "Hg1 mi
5:30 AM45 °FFog.5 mph100%29.95 "Hg1 mi
4:30 AM45 °FFog.6 mph100%29.98 "Hg2 mi
2:30 AM45 °FFog.5 mph100%29.98 "Hg2 mi
2:00 AM45 °FFog.2 mph100%29.98 "Hg2 mi
1:30 AM46 °FFog.No wind100%29.98 "Hg2 mi
1:00 AM48 °FFog.No wind100%29.98 "Hg2 mi
12:30 AM48 °FFog.No wind100%30.01 "Hg2 mi
12:00 AM48 °FFog.No wind100%30.01 "Hg2 mi
11:30 PM
Thu, Feb 11
50 °FFog.No wind100%30.01 "Hg2 mi
11:00 PM50 °FFog.2 mph100%30.01 "Hg2 mi
10:30 PM52 °FFog.7 mph100%30.01 "Hg2 mi
10:00 PM52 °FFog.9 mph100%30.01 "Hg2 mi
9:30 PM52 °FFog.7 mph100%29.98 "Hg2 mi
9:00 PM54 °FFog.8 mph100%29.98 "Hg2 mi
8:30 PM54 °FFog.7 mph100%29.98 "Hg2 mi
8:00 PM54 °FFog.6 mph100%29.95 "Hg2 mi
7:30 PM54 °FFog.5 mph100%29.92 "Hg2 mi
7:00 PM55 °FFog.7 mph100%29.92 "Hg2 mi
6:30 PM55 °FFog.5 mph100%29.92 "Hg2 mi
6:00 PM59 °FFog.No wind94%29.89 "Hg1 mi
Weather by CustomWeather, © 2016

See weather overviewHow to use our weather pages